📊 Raw Sensor Data

Showing records 42676 to 42700 of 85,004 total

ID Distance (ft) Battery V Battery A Int Temp (°F) Int Humid (%) Ext Temp (°F) Solar V RSSI SNR Time Stamp
42341 15.1 3.98 -13 55 41 60 4.50 -74 8 06/02/2025 06:45 AM
42340 15.0 4.00 0 54 41 56 4.50 -73 8 06/02/2025 06:30 AM
42339 15.0 3.93 0 52 42 55 4.50 -75 8 06/02/2025 06:15 AM
42338 15.0 3.92 -7 51 42 53 4.50 -74 8 06/02/2025 06:00 AM
42337 15.0 3.97 -10 51 42 52 3.80 -74 8 06/02/2025 05:45 AM
42336 15.0 3.98 -5 51 42 52 0.60 -75 8 06/02/2025 05:30 AM
42335 15.0 3.92 -5 51 43 53 0.00 -74 8 06/02/2025 05:15 AM
42334 14.8 3.98 -5 52 42 53 0.00 -74 8 06/02/2025 04:45 AM
42333 14.9 3.93 -5 52 42 54 0.10 -74 8 06/02/2025 04:30 AM
42332 14.9 3.93 -5 52 42 54 0.00 -74 8 06/02/2025 04:15 AM
42331 14.9 3.98 -5 52 42 54 0.00 -73 8 06/02/2025 04:00 AM
42330 14.9 3.93 -5 52 42 53 0.00 -74 7 06/02/2025 03:45 AM
42329 14.9 3.93 -5 51 43 53 0.00 -75 8 06/02/2025 03:30 AM
42328 14.9 3.99 -5 51 43 53 0.10 -74 8 06/02/2025 03:15 AM
42327 14.9 3.93 -5 51 43 53 0.00 -74 8 06/02/2025 03:00 AM
42326 14.9 3.93 -5 51 43 53 0.00 -75 8 06/02/2025 02:45 AM
42325 14.9 3.93 -5 51 43 53 0.00 -75 8 06/02/2025 02:30 AM
42324 14.9 3.93 -5 52 43 53 0.10 -75 8 06/02/2025 02:15 AM
42323 14.9 3.99 -5 52 43 54 0.00 -73 8 06/02/2025 02:00 AM
42322 14.9 3.93 -5 52 43 54 0.00 -76 8 06/02/2025 01:45 AM
42321 14.9 3.93 -5 52 43 54 0.00 -74 8 06/02/2025 01:30 AM
42320 14.9 3.99 -5 52 43 53 0.00 -74 8 06/02/2025 01:15 AM
42319 15.0 3.94 -5 52 44 54 0.00 -74 8 06/02/2025 01:00 AM
42318 14.9 3.94 -5 52 44 54 0.00 -72 8 06/02/2025 12:45 AM
42317 14.9 3.99 -5 52 44 54 0.00 -79 8 06/02/2025 12:30 AM